[[{"header":{"parameterUnit":"m.s-1","parameterCategory":2,"la1":30.2991,"la2":30.254,"lo1":-89.0895,"lo2":-89.0444,"dy":0.0017,"dx":0.0017,"nx":28,"ny":28,"refTime":"2024-06-03T21:00:00:Z","depth":"0","parameterNumber":2,"parameterNumberName":"U-component_of_CURRENTS"},"data":[0,0,0,0,0,0,0,0,0,0,0,0,0,0,0,0,0,0,0,0,0,0,0,0,0,0,0,0,0,0,0,0,0,0,0,0,0,0,0,0,0,0,0,0,0,0,0,0,0,0,0,0,0,0,0,0,0,0,0.3485,0.3486,0,0.361,0.3612,0.3613,0.3612,0.3611,0.3609,0.3608,0.368,0.3683,0.3686,0,0,0,0,0,0,0,0,0,0,0,0,0,0.3269,0.3273,0.3485,0.3487,0.3489,0.361,0.3612,0.3613,0.3612,0.3611,0.3609,0.3608,0.3679,0.3683,0.3686,0,0,0,0,0,0,0,0,0,0,0,0,0,0.3372,0.3274,0.3484,0.3506,0.351,0.361,0.3612,0.3613,0.3613,0.3611,0.3609,0.3607,0.3678,0.3682,0.3687,0.3752,0,0,0.3701,0.3703,0,0,0,0,0,0,0,0,0.3366,0.3379,0.3501,0.3505,0.3509,0.3598,0.3562,0.3659,0.3613,0.3569,0.3608,0.3606,0.3652,0.3658,0.3681,0.3756,0.3759,0.3701,0.3704,0.3706,0.3707,0,0,0,0,0,0,0,0.3359,0.3374,0.353,0.3503,0.3508,0.3519,0.3531,0.3581,0.3615,0.3572,0.3574,0.3596,0.3653,0.3676,0.3682,0.376,0.3701,0.3705,0.3708,0.371,0.3933,0.3936,0,0,0,0,0,0,0.3354,0.3367,0.3526,0.3534,0.3436,0.3525,0.3537,0.3567,0.3615,0.3623,0.3597,0.3595,0.3669,0.3677,0.3685,0.3806,0.3706,0.371,0.3713,0.393,0.3933,0.3937,0,0,0,0,0,0,0.3349,0.3367,0.3521,0.3456,0.3477,0.353,0.3564,0.3571,0.3601,0.3636,0.364,0.3621,0.3668,0.3678,0.3748,0.3807,0.3712,0.3717,0.3926,0.3931,0.3935,0.4023,0,0,0,0,0,0,0.3342,0.3365,0.3386,0.3456,0.3481,0.3594,0.3567,0.3575,0.3619,0.3618,0.3658,0.3662,0.3667,0.3741,0.3752,0.3811,0.372,0.3922,0.3928,0.3934,0.4016,0.403,0.4042,0,0,0,0,0,0.3334,0.3382,0.3387,0.3406,0.3509,0.3597,0.3611,0.3638,0.3622,0.3653,0.3679,0.3661,0.3786,0.3748,0.376,0.3822,0.3919,0.3926,0.3933,0.401,0.4027,0.4042,0,0,0,0,0,0,0.3299,0.3389,0.3395,0.3466,0.3529,0.3598,0.3636,0.3651,0.3698,0.3691,0.3704,0.3713,0.3804,0.3803,0.376,0.3905,0.385,0.386,0.3904,0.392,0.3933,0.3911,0.3724,0,0,0,0,0,0.3303,0.3364,0.3438,0.3497,0.3528,0.3581,0.3619,0.364,0.3692,0.371,0.3743,0.3782,0.3847,0.387,0.3925,0.4,0.4008,0.4048,0.4061,0.4072,0.4065,0.4145,0.4164,0.396,0.396,0.396,0,0,0.3303,0.3365,0.3395,0.3494,0.3539,0.3607,0.3599,0.3668,0.3723,0.3713,0.3796,0.3838,0.3881,0.3973,0.4011,0.3973,0.414,0.4081,0.409,0.4076,0.4155,0.4174,0.4192,0.3965,0.3964,0.3963,0,0,0.3349,0.339,0.3455,0.3512,0.3597,0.3636,0.3659,0.3738,0.3768,0.3861,0.3873,0.3941,0.4034,0.4074,0.4106,0.4223,0.4216,0.4249,0.4286,0.4366,0.4382,0.4397,0.4446,0.4464,0.4242,0.4242,0.4242,0,0.3339,0.3433,0.3487,0.3563,0.3614,0.3651,0.3722,0.3772,0.3864,0.3911,0.3896,0.4061,0.4084,0.4201,0.4231,0.4252,0.4284,0.422,0.4381,0.4396,0.4409,0.4456,0.4475,0.4247,0.4247,0.4246,0.4246,0,0.3437,0.3502,0.3548,0.3652,0.3715,0.3784,0.3856,0.3921,0.3961,0.4015,0.4144,0.4188,0.428,0.4307,0.4299,0.442,0.4409,0.4398,0.4334,0.4435,0.4478,0.4496,0.4254,0.4253,0.4251,0.425,0,0,0.3431,0.3583,0.3595,0.3646,0.3763,0.3822,0.3928,0.4039,0.4106,0.4194,0.4295,0.4397,0.4416,0.4451,0.4466,0.4509,0.4626,0.4486,0.4487,0.452,0.4793,0.4738,0.4752,0.4649,0.4653,0.4656,0.4788,0,0.3482,0.362,0.3692,0.3804,0.3873,0.3946,0.4032,0.4134,0.4221,0.4325,0.4392,0.4489,0.4475,0.4514,0.4572,0.4622,0.4677,0.459,0.4701,0.4704,0.4632,0.4772,0.464,0.4743,0.4806,0.4809,0.4811,0,0.3552,0.3634,0.3752,0.3874,0.3908,0.3973,0.4117,0.4208,0.4357,0.4425,0.4545,0.4595,0.4704,0.4651,0.4806,0.4757,0.4781,0.4797,0.4803,0.4726,0.4683,0.4653,0.4773,0.4672,0.4838,0.4836,0.4834,0,0.3524,0.3672,0.3759,0.3805,0.3949,0.4008,0.4086,0.4236,0.4314,0.4488,0.4562,0.471,0.4784,0.4861,0.4921,0.4876,0.5064,0.5011,0.4987,0.4982,0.4875,0.4854,0.4892,0.5109,0.5109,0.5108,0.5108,0,0.3556,0.3623,0.3742,0.3788,0.3873,0.3986,0.4091,0.42,0.4345,0.4454,0.4597,0.4703,0.4839,0.4962,0.4986,0.507,0.5142,0.502,0.503,0.4903,0.4884,0.4791,0.4745,0.5113,0.5112,0.5111,0.5111,0,0.3524,0.361,0.3701,0.3828,0.3863,0.3923,0.4058,0.4138,0.4291,0.4441,0.4495,0.4726,0.4897,0.5016,0.5155,0.5155,0.5094,0.5221,0.505,0.5035,0.4863,0.4827,0.4672,0.4532,0.5207,0.5207,0.5206,0,0.3524,0.3569,0.3688,0.3725,0.3778,0.3871,0.3933,0.4089,0.4182,0.4451,0.4518,0.4738,0.4883,0.5097,0.5158,0.5238,0.5078,0.513,0.5002,0.4862,0.4832,0.4612,0.4489,0.4905,0.4902,0.49,0.4898,0,0.3504,0.354,0.3604,0.3669,0.3728,0.3799,0.3904,0.3957,0.4166,0.4299,0.4497,0.4628,0.4876,0.4939,0.5071,0.5089,0.4901,0.5082,0.5002,0.4657,0.4359,0.4226,0.4792,0.4878,0.488,0.4882,0.4883,0.4884,0.3461,0.3483,0.3551,0.3598,0.3662,0.371,0.3723,0.3852,0.3966,0.4137,0.4369,0.4509,0.4722,0.4891,0.4875,0.48,0.4744,0.4693,0.4683,0.4488,0.4276,0.4782,0.4833,0.4835,0.4836,0.4837,0.4839,0,0.339,0.3427,0.3477,0.352,0.3528,0.36,0.3683,0.3672,0.3746,0.3965,0.4116,0.433,0.4413,0.4512,0.4591,0.447,0.4217,0.4358,0.4041,0.3955,0.4492,0.4402,0.4284,0.4284,0.4284,0.4284,0.4284,0.4284,0.336,0.3368,0.3387,0.3361,0.3386,0.335,0.336,0.3377,0.3479,0.3594,0.3712,0.3888,0.4208,0.4413,0.4336,0.4224,0.39,0.3742,0.3694,0.4129,0.4158,0.4186,0.409,0.3909,0.3908,0.2984,0.2978,0.2973]},{"header":{"parameterUnit":"m.s-1","parameterCategory":2,"la1":30.2991,"la2":30.254,"lo1":-89.0895,"lo2":-89.0444,"dy":0.0017,"dx":0.0017,"nx":28,"ny":28,"refTime":"2024-06-03T21:00:00:Z","depth":"0","parameterNumber":3,"parameterNumberName":"V-component_of_CURRENTS"},"data":[0,0,0,0,0,0,0,0,0,0,0,0,0,0,0,0,0,0,0,0,0,0,0,0,0,0,0,0,0,0,0,0,0,0,0,0,0,0,0,0,0,0,0,0,0,0,0,0,0,0,0,0,0,0,0,0,0,0,0.0085,0.0084,0,0.0011,0.001,0.0009,-0.005,-0.0051,-0.0051,-0.0051,-0.0188,-0.0192,-0.0195,0,0,0,0,0,0,0,0,0,0,0,0,0,0.0108,0.0108,0.0085,0.0084,0.0083,0.0011,0.001,0.0008,-0.005,-0.0051,-0.0051,-0.0052,-0.0187,-0.0191,-0.0195,0,0,0,0,0,0,0,0,0,0,0,0,0,0.007,0.0108,0.0085,0.0048,0.0044,0.0011,0.001,0.0008,-0.005,-0.0051,-0.0051,-0.0052,-0.0186,-0.0191,-0.0196,-0.0217,0,0,-0.0211,-0.0213,0,0,0,0,0,0,0,0,0.0072,0.0068,0.0054,0.005,0.0046,-0.0009,-0.0032,-0.0069,-0.005,-0.0018,-0.0051,-0.0052,-0.0132,-0.0141,-0.0157,-0.0223,-0.0229,-0.0211,-0.0214,-0.0217,-0.0218,0,0,0,0,0,0,0,0.0075,0.0071,0.0052,0.0053,0.0048,0.0012,0.0006,-0.004,-0.0074,-0.0021,-0.0024,-0.0028,-0.0135,-0.0152,-0.0161,-0.0231,-0.0211,-0.0216,-0.0219,-0.0221,-0.034,-0.034,0,0,0,0,0,0,0.0094,0.0074,0.0055,0.0051,0.0061,0.0012,0.0005,0.0007,-0.0073,-0.0084,-0.0027,-0.003,-0.0143,-0.0155,-0.0166,-0.019,-0.0217,-0.0221,-0.0224,-0.0339,-0.034,-0.034,0,0,0,0,0,0,0.0095,0.0093,0.0058,0.0062,0.0056,0.0013,0.0014,0.0006,-0.0008,-0.0077,-0.009,-0.0032,-0.0144,-0.0159,-0.0205,-0.0196,-0.0224,-0.0228,-0.0339,-0.034,-0.034,-0.0242,0,0,0,0,0,0,0.0096,0.0094,0.0099,0.0064,0.0056,0.0053,0.0015,0.0005,-0.0009,-0.0013,-0.0085,-0.0098,-0.0146,-0.0197,-0.021,-0.0203,-0.0232,-0.0339,-0.0339,-0.034,-0.0245,-0.0239,-0.0233,0,0,0,0,0,0.0097,0.0113,0.01,0.0098,0.0066,0.0054,0.0047,0.0012,-0.0008,-0.0005,-0.0061,-0.0096,-0.0208,-0.0201,-0.0216,-0.0211,-0.0339,-0.0339,-0.034,-0.0247,-0.024,-0.0233,0,0,0,0,0,0,0.0124,0.0108,0.0093,0.0102,0.0085,0.0046,0.0044,0.002,-0.0021,-0.0028,-0.0097,-0.0114,-0.0154,-0.0197,-0.0188,-0.0248,-0.028,-0.0283,-0.0204,-0.0198,-0.0192,-0.0145,-0.0236,0,0,0,0,0,0.0135,0.0143,0.0118,0.0126,0.0121,0.0083,0.0073,0.0053,0.0014,-0.0004,-0.0056,-0.0116,-0.0167,-0.0193,-0.0245,-0.0274,-0.0294,-0.0283,-0.0277,-0.0272,-0.0245,-0.0277,-0.0271,-0.0341,-0.0341,-0.0341,0,0,0.0146,0.014,0.0143,0.0133,0.0114,0.0119,0.0075,0.0071,0.0072,-0.0013,-0.0036,-0.0098,-0.0172,-0.0207,-0.0228,-0.0241,-0.0262,-0.0272,-0.0267,-0.0242,-0.0277,-0.0269,-0.0263,-0.0341,-0.0341,-0.0341,0,0,0.0187,0.017,0.0195,0.0187,0.0175,0.015,0.0155,0.012,0.01,0.0071,0.0007,-0.0039,-0.012,-0.0163,-0.0198,-0.019,-0.0233,-0.0219,-0.0147,-0.0179,-0.0172,-0.0167,-0.0171,-0.0167,-0.0213,-0.0212,-0.0212,0,0.0201,0.0228,0.0199,0.0222,0.0224,0.0171,0.0198,0.017,0.0123,0.0119,0.0077,-0.0023,-0.0093,-0.0122,-0.0128,-0.0173,-0.0192,-0.0163,-0.0167,-0.0163,-0.0159,-0.0165,-0.0161,-0.0208,-0.0208,-0.0209,-0.0209,0,0.0261,0.028,0.0294,0.0304,0.0301,0.0314,0.028,0.0272,0.0233,0.0204,0.0168,0.0074,0.0027,-0.0018,-0.0076,-0.0084,-0.0105,-0.0156,-0.0174,-0.0145,-0.0154,-0.0152,-0.0201,-0.0203,-0.0204,-0.0205,0,0,0.0306,0.0332,0.0339,0.0367,0.0348,0.0362,0.0361,0.0358,0.0384,0.0307,0.0334,0.0216,0.0176,0.0135,0.0056,0.0015,0.0012,-0.0052,-0.0056,-0.0035,-0.0035,-0.0051,-0.0051,-0.0043,-0.0042,-0.0042,-0.0047,0,0.0363,0.0436,0.0423,0.0483,0.0516,0.0477,0.0493,0.0482,0.0453,0.0462,0.0368,0.0352,0.0231,0.0221,0.0159,0.0058,0.002,0.002,-0.0084,-0.0086,-0.0088,-0.0049,-0.0056,-0.0062,-0.0045,-0.0045,-0.0045,0,0.0432,0.0473,0.055,0.0597,0.0609,0.0635,0.0672,0.068,0.0666,0.0649,0.0611,0.0541,0.0483,0.0371,0.0231,0.0238,0.0117,0.0023,0.002,-0.0023,-0.0099,-0.0095,-0.006,-0.0309,-0.0042,-0.0043,-0.0043,0,0.0504,0.0564,0.0634,0.0648,0.0687,0.0724,0.0742,0.0747,0.0787,0.0786,0.0827,0.072,0.071,0.0537,0.0342,0.029,0.0195,0.0097,-0.0029,-0.0031,-0.0068,-0.0074,-0.0266,-0.0001,-0.0001,-0.0001,-0.0001,0,0.0574,0.0633,0.0684,0.0727,0.0829,0.0822,0.0923,0.0929,0.0968,0.1059,0.0944,0.1004,0.0749,0.0657,0.0432,0.0241,0.0268,0.0012,-0.0029,-0.0035,-0.0038,-0.0283,-0.0416,-0.0001,-0.0001,-0.0001,-0.0001,0,0.0645,0.0672,0.0766,0.0836,0.0871,0.0949,0.1049,0.1126,0.1151,0.1275,0.1292,0.1238,0.1124,0.0865,0.0618,0.0397,0.0047,0.0099,0.0127,0.0089,-0.0291,-0.0416,-0.0607,-0.072,-0.0041,-0.0041,-0.0042,0,0.0688,0.0746,0.0858,0.0933,0.0974,0.1086,0.1172,0.1217,0.1312,0.1436,0.1517,0.1459,0.1457,0.1104,0.0685,0.0322,0.0061,0.0072,-0.0053,-0.0286,-0.0457,-0.0551,-0.064,-0.0061,-0.0062,-0.0062,-0.0062,0,0.0777,0.0817,0.0898,0.1049,0.116,0.1286,0.1416,0.1521,0.1612,0.1742,0.1903,0.1923,0.159,0.123,0.072,0.0441,-0.0104,0.0052,-0.0208,-0.0489,-0.0585,-0.072,-0.0069,-0.0065,-0.0065,-0.0065,-0.0065,-0.0065,0.0849,0.0924,0.1037,0.1178,0.1312,0.1483,0.1611,0.177,0.197,0.2187,0.2185,0.2263,0.1717,0.1017,0.0614,-0.0144,-0.0154,-0.0397,-0.0524,-0.0593,-0.0728,-0.0062,-0.0103,-0.0103,-0.0103,-0.0103,-0.0103,0,0.0938,0.1023,0.1159,0.1337,0.1492,0.1543,0.1772,0.1921,0.219,0.2383,0.2529,0.2301,0.1628,0.0918,-0.0094,-0.0624,-0.0826,-0.0914,-0.1078,-0.1141,-0.0565,-0.0595,-0.0721,-0.0721,-0.0721,-0.0721,-0.072,-0.072,0.0996,0.1132,0.1197,0.146,0.1588,0.181,0.195,0.219,0.2369,0.262,0.2666,0.2648,0.2107,0.0329,-0.0908,-0.1194,-0.1545,-0.1621,-0.1799,-0.1453,-0.1416,-0.1381,-0.1443,-0.1745,-0.1746,-0.2327,-0.2333,-0.2338]}],[{"header":{"parameterUnit":"m.s-1","parameterCategory":2,"la1":30.2991,"la2":30.254,"lo1":-89.0895,"lo2":-89.0444,"dy":0.0017,"dx":0.0017,"nx":28,"ny":28,"refTime":"2024-06-03T21:00:00:Z","depth":"2","parameterNumber":2,"parameterNumberName":"U-component_of_CURRENTS"},"data":[0,0,0,0,0,0,0,0,0,0,0,0,0,0,0,0,0,0,0,0,0,0,0,0,0,0,0,0,0,0,0,0,0,0,0,0,0,0,0,0,0,0,0,0,0,0,0,0,0,0,0,0,0,0,0,0,0,0,0.2844,0.2845,0,0.2938,0.294,0.2941,0.2966,0.2966,0.2965,0.2964,0.3018,0.302,0.3021,0,0,0,0,0,0,0,0,0,0,0,0,0,0.2755,0.2756,0.2844,0.2845,0.2846,0.2938,0.294,0.2941,0.2966,0.2966,0.2965,0.2964,0.3017,0.3019,0.3022,0,0,0,0,0,0,0,0,0,0,0,0,0,0.2816,0.2757,0.2843,0.2869,0.2873,0.2938,0.294,0.2941,0.2966,0.2966,0.2965,0.2964,0.3016,0.3019,0.3022,0.3058,0,0,0.3031,0.3032,0,0,0,0,0,0,0,0,0.2813,0.282,0.2864,0.2868,0.2871,0.2939,0.2928,0.2978,0.2967,0.2931,0.2964,0.2963,0.2988,0.2993,0.3014,0.3061,0.3063,0.3031,0.3033,0.3034,0.3035,0,0,0,0,0,0,0,0.2809,0.2816,0.2882,0.2866,0.287,0.2901,0.2908,0.2938,0.2963,0.2934,0.2936,0.2946,0.2989,0.3011,0.3015,0.3064,0.3031,0.3034,0.3036,0.3037,0.329,0.3295,0,0,0,0,0,0,0.2794,0.2812,0.2879,0.2884,0.2839,0.2902,0.2911,0.2919,0.2964,0.297,0.2947,0.2947,0.3007,0.3012,0.3017,0.3155,0.3034,0.3037,0.3039,0.3285,0.3291,0.3297,0,0,0,0,0,0,0.2791,0.2799,0.2875,0.285,0.2862,0.2904,0.2914,0.2921,0.2958,0.2974,0.2979,0.2978,0.3006,0.3013,0.306,0.3153,0.3038,0.3041,0.3279,0.3287,0.3294,0.337,0,0,0,0,0,0,0.2788,0.2797,0.2817,0.2849,0.2863,0.2932,0.2915,0.2924,0.2965,0.2966,0.3002,0.3005,0.3006,0.3055,0.3063,0.3155,0.3043,0.3273,0.3283,0.3292,0.3361,0.3379,0.3395,0,0,0,0,0,0.2785,0.2811,0.2818,0.2827,0.2882,0.2933,0.2945,0.2971,0.2967,0.2999,0.3015,0.3005,0.3122,0.306,0.3068,0.3163,0.3269,0.328,0.3291,0.3354,0.3376,0.3394,0,0,0,0,0,0,0.2782,0.2817,0.2825,0.286,0.2902,0.2938,0.2969,0.2986,0.3027,0.3027,0.3032,0.3038,0.3128,0.3138,0.3069,0.3274,0.321,0.3223,0.3256,0.3277,0.3293,0.326,0.3046,0,0,0,0,0,0.279,0.2821,0.2856,0.2888,0.2905,0.2941,0.297,0.2991,0.3022,0.304,0.3067,0.3116,0.3183,0.3214,0.3264,0.3349,0.3335,0.3434,0.345,0.3464,0.345,0.35,0.3517,0.3333,0.3333,0.3333,0,0,0.2793,0.2822,0.2836,0.2891,0.2919,0.2984,0.2957,0.3007,0.3074,0.3039,0.3132,0.3163,0.3217,0.3321,0.3368,0.3336,0.3518,0.3478,0.3488,0.3466,0.3513,0.353,0.3545,0.3341,0.3339,0.3338,0,0,0.2824,0.2841,0.2882,0.2923,0.2979,0.302,0.3039,0.3092,0.3124,0.321,0.3219,0.328,0.3388,0.3433,0.3475,0.3614,0.3599,0.3676,0.3732,0.3782,0.3796,0.3807,0.3828,0.384,0.369,0.369,0.369,0,0.2831,0.288,0.2904,0.2962,0.3001,0.3042,0.3102,0.3162,0.3231,0.3258,0.3256,0.3414,0.3443,0.3566,0.3623,0.3647,0.3663,0.364,0.3797,0.3808,0.3818,0.3836,0.3849,0.3695,0.3694,0.3694,0.3693,0,0.2894,0.2941,0.2966,0.3059,0.3119,0.3167,0.3247,0.3308,0.3357,0.3409,0.3521,0.356,0.3647,0.3703,0.3702,0.3827,0.3811,0.3799,0.3724,0.384,0.3853,0.3865,0.3702,0.37,0.3699,0.3698,0,0,0.2875,0.2985,0.2994,0.3043,0.3161,0.3212,0.3329,0.3428,0.3491,0.3585,0.3669,0.3788,0.3792,0.3839,0.3865,0.3908,0.3997,0.3893,0.3894,0.3874,0.41,0.4035,0.4041,0.4016,0.4019,0.4021,0.4082,0,0.2909,0.3023,0.3073,0.3191,0.3256,0.3319,0.3419,0.3522,0.3606,0.3706,0.3769,0.3871,0.386,0.3905,0.3954,0.3994,0.4031,0.398,0.4024,0.4024,0.392,0.4054,0.3781,0.3808,0.4093,0.4095,0.4096,0,0.2948,0.3026,0.3132,0.3244,0.327,0.3354,0.3488,0.3584,0.3729,0.378,0.3886,0.3946,0.4057,0.4017,0.4124,0.4099,0.4103,0.4111,0.4114,0.4024,0.3982,0.3743,0.3818,0.4115,0.4113,0.4112,0.4111,0,0.2926,0.3057,0.3138,0.318,0.3327,0.3371,0.3461,0.3605,0.368,0.384,0.3917,0.4039,0.4111,0.4162,0.4204,0.4179,0.4291,0.4257,0.4193,0.4187,0.3944,0.3913,0.4304,0.4304,0.4304,0.4304,0.4303,0,0.293,0.2994,0.313,0.3167,0.3259,0.3373,0.3475,0.3562,0.3713,0.3807,0.3955,0.4047,0.4151,0.4238,0.425,0.4273,0.4336,0.4215,0.4211,0.3969,0.3941,0.4189,0.4175,0.4306,0.4305,0.4305,0.4304,0,0.2892,0.297,0.3066,0.3204,0.3244,0.332,0.3468,0.3545,0.3696,0.3829,0.389,0.4078,0.4186,0.4271,0.4345,0.432,0.4349,0.4324,0.4024,0.3984,0.4193,0.4183,0.4269,0.4267,0.4266,0.4265,0.4264,0,0.2883,0.2933,0.307,0.3102,0.3154,0.3277,0.3346,0.3512,0.3592,0.3831,0.3881,0.4059,0.4142,0.4265,0.4262,0.4285,0.4326,0.4014,0.391,0.4208,0.4196,0.4188,0.418,0.3622,0.3616,0.3611,0.3607,0,0.2862,0.2905,0.297,0.3051,0.3116,0.3202,0.3313,0.3355,0.3545,0.3662,0.38,0.3901,0.4056,0.3977,0.4029,0.3996,0.3999,0.3913,0.4323,0.3681,0.3605,0.3591,0.3603,0.3562,0.3567,0.357,0.3573,0.3574,0.2828,0.2857,0.2926,0.2984,0.3051,0.3084,0.3091,0.3204,0.3293,0.339,0.3578,0.3636,0.3723,0.3677,0.3588,0.354,0.3794,0.3629,0.364,0.3659,0.3581,0.3508,0.3431,0.3434,0.3437,0.344,0.3442,0,0.2757,0.2797,0.285,0.2894,0.289,0.2981,0.3029,0.299,0.3002,0.3168,0.3249,0.3057,0.3061,0.3145,0.3031,0.3052,0.2981,0.2911,0.2799,0.2849,0.2893,0.277,0.2408,0.2403,0.2399,0.2396,0,0,0.2724,0.2724,0.2745,0.2711,0.2731,0.2691,0.2668,0.2641,0.2706,0.2659,0.2696,0.2942,0.3111,0.2716,0.269,0.2535,0.2655,0.2437,0.3289,0.3214,0.325,0.3354,0.323,0,0,0,0,0]},{"header":{"parameterUnit":"m.s-1","parameterCategory":2,"la1":30.2991,"la2":30.254,"lo1":-89.0895,"lo2":-89.0444,"dy":0.0017,"dx":0.0017,"nx":28,"ny":28,"refTime":"2024-06-03T21:00:00:Z","depth":"2","parameterNumber":3,"parameterNumberName":"V-component_of_CURRENTS"},"data":[0,0,0,0,0,0,0,0,0,0,0,0,0,0,0,0,0,0,0,0,0,0,0,0,0,0,0,0,0,0,0,0,0,0,0,0,0,0,0,0,0,0,0,0,0,0,0,0,0,0,0,0,0,0,0,0,0,0,-0.0039,-0.0039,0,-0.0101,-0.0102,-0.0103,-0.0154,-0.0155,-0.0155,-0.0155,-0.0274,-0.0277,-0.028,0,0,0,0,0,0,0,0,0,0,0,0,0,-0.0014,-0.0014,-0.0039,-0.0039,-0.004,-0.0101,-0.0102,-0.0103,-0.0154,-0.0155,-0.0155,-0.0156,-0.0273,-0.0276,-0.028,0,0,0,0,0,0,0,0,0,0,0,0,0,-0.0047,-0.0014,-0.0039,-0.0071,-0.0075,-0.0101,-0.0102,-0.0103,-0.0154,-0.0155,-0.0155,-0.0156,-0.0272,-0.0276,-0.028,-0.0296,0,0,-0.0293,-0.0295,0,0,0,0,0,0,0,0,-0.0045,-0.0048,-0.0066,-0.0069,-0.0073,-0.0119,-0.0137,-0.017,-0.0154,-0.0126,-0.0155,-0.0156,-0.0226,-0.0234,-0.0246,-0.0301,-0.0306,-0.0294,-0.0296,-0.0298,-0.0299,0,0,0,0,0,0,0,-0.0043,-0.0046,-0.0065,-0.0066,-0.0071,-0.01,-0.0105,-0.0143,-0.0175,-0.0129,-0.0132,-0.0136,-0.0228,-0.0242,-0.025,-0.0308,-0.0293,-0.0297,-0.03,-0.0301,-0.0406,-0.0407,0,0,0,0,0,0,-0.0028,-0.0044,-0.0063,-0.0067,-0.0058,-0.0099,-0.0105,-0.0105,-0.0173,-0.0183,-0.0135,-0.0138,-0.0235,-0.0245,-0.0254,-0.027,-0.0298,-0.0302,-0.0304,-0.0406,-0.0406,-0.0407,0,0,0,0,0,0,-0.0027,-0.0029,-0.0061,-0.0056,-0.0061,-0.0099,-0.0099,-0.0106,-0.0119,-0.0177,-0.0189,-0.0139,-0.0235,-0.0248,-0.0284,-0.0275,-0.0304,-0.0308,-0.0406,-0.0406,-0.0407,-0.0306,0,0,0,0,0,0,-0.0026,-0.0028,-0.0023,-0.0054,-0.0061,-0.0065,-0.0098,-0.0107,-0.0119,-0.0123,-0.0185,-0.0196,-0.0237,-0.0278,-0.0288,-0.0282,-0.0311,-0.0406,-0.0406,-0.0406,-0.0309,-0.0303,-0.0298,0,0,0,0,0,-0.0025,-0.001,-0.0023,-0.0025,-0.0053,-0.0064,-0.007,-0.01,-0.0118,-0.0116,-0.0162,-0.0194,-0.0289,-0.0281,-0.0294,-0.0288,-0.0405,-0.0406,-0.0406,-0.0312,-0.0305,-0.0298,0,0,0,0,0,0,0.0002,-0.0015,-0.0029,-0.0021,-0.0037,-0.0071,-0.0072,-0.0094,-0.0127,-0.0133,-0.0193,-0.0207,-0.0241,-0.028,-0.027,-0.0323,-0.0355,-0.0358,-0.0279,-0.0272,-0.0267,-0.0222,-0.0314,0,0,0,0,0,0.0012,0.0016,-0.0006,-0.0001,-0.0004,-0.0038,-0.0047,-0.0064,-0.0096,-0.0111,-0.0157,-0.0209,-0.0254,-0.0273,-0.0322,-0.0341,-0.0374,-0.035,-0.0344,-0.0339,-0.0314,-0.036,-0.0355,-0.0409,-0.0409,-0.0409,0,0,0.0021,0.0014,0.0015,0.0005,-0.0011,-0.0004,-0.0045,-0.0048,-0.0046,-0.012,-0.0137,-0.0193,-0.0258,-0.0285,-0.0303,-0.0313,-0.0344,-0.034,-0.0334,-0.0312,-0.036,-0.0355,-0.035,-0.0409,-0.0409,-0.0409,0,0,0.0055,0.004,0.0061,0.0057,0.0046,0.0023,0.0027,-0.0003,-0.0019,-0.0042,-0.0099,-0.0136,-0.021,-0.0241,-0.027,-0.0261,-0.0319,-0.0293,-0.0218,-0.0263,-0.0258,-0.0254,-0.0292,-0.0292,-0.0282,-0.0282,-0.0282,0,0.0068,0.0094,0.0064,0.0088,0.0094,0.0041,0.007,0.0044,0.0005,0.0006,-0.0037,-0.0123,-0.0182,-0.0198,-0.0202,-0.0244,-0.0282,-0.0233,-0.0252,-0.0249,-0.0247,-0.0287,-0.0288,-0.0277,-0.0278,-0.0278,-0.0279,0,0.0122,0.0144,0.0157,0.0167,0.0166,0.0182,0.0151,0.0146,0.0109,0.0084,0.0055,-0.0026,-0.0067,-0.0105,-0.0153,-0.0163,-0.0201,-0.0243,-0.0259,-0.0235,-0.0279,-0.0283,-0.027,-0.0272,-0.0274,-0.0275,0,0,0.0155,0.019,0.0197,0.0227,0.0215,0.0226,0.0232,0.0234,0.0256,0.019,0.0211,0.0118,0.0078,0.0042,-0.0026,-0.0067,-0.0097,-0.0141,-0.0146,-0.0158,-0.0196,-0.0223,-0.023,-0.0149,-0.0149,-0.0149,-0.0234,0,0.021,0.0284,0.0277,0.0337,0.0373,0.0344,0.0362,0.0355,0.0324,0.0325,0.0249,0.0226,0.013,0.0115,0.0058,-0.0058,-0.0102,-0.007,-0.0235,-0.0239,-0.0249,-0.0232,-0.0192,-0.0264,-0.0238,-0.0238,-0.0239,0,0.027,0.0316,0.0396,0.045,0.0463,0.0486,0.0522,0.0531,0.0515,0.0496,0.0461,0.0388,0.0329,0.0234,0.0073,0.0093,-0.0035,-0.0133,-0.014,-0.0194,-0.027,-0.0287,-0.0272,-0.0245,-0.0244,-0.0244,-0.0243,0,0.0327,0.0398,0.0469,0.0487,0.0534,0.0572,0.0589,0.0593,0.0627,0.0611,0.0633,0.0529,0.0493,0.0325,0.0114,0.0091,-0.0074,-0.0133,-0.0273,-0.0277,-0.0286,-0.0291,-0.0242,-0.0242,-0.0242,-0.0242,-0.0242,0,0.0392,0.0449,0.051,0.0553,0.0651,0.0651,0.0739,0.0746,0.0773,0.0836,0.073,0.0753,0.051,0.038,0.0169,-0.0052,-0.0034,-0.0244,-0.0295,-0.0253,-0.0253,-0.0273,-0.0276,-0.0245,-0.0244,-0.0244,-0.0243,0,0.0444,0.048,0.0573,0.0651,0.0684,0.0755,0.0845,0.0907,0.0923,0.1003,0.1008,0.0921,0.0756,0.0502,0.023,0.004,-0.0183,-0.0272,-0.0202,-0.0243,-0.037,-0.0367,-0.0422,-0.0424,-0.0425,-0.0426,-0.0427,0,0.0479,0.0535,0.0651,0.0717,0.0759,0.0861,0.0936,0.0981,0.1052,0.1114,0.1163,0.1045,0.0971,0.0574,0.0214,-0.014,-0.0192,-0.0326,-0.0363,-0.0341,-0.0386,-0.0381,-0.0376,-0.0344,-0.0344,-0.0344,-0.0344,0,0.0549,0.0588,0.0667,0.0807,0.0904,0.1019,0.1128,0.1208,0.1274,0.1345,0.1407,0.1357,0.1,0.065,0.0171,-0.0062,-0.0268,-0.034,-0.0332,-0.0302,-0.0274,-0.0316,-0.0312,-0.0345,-0.0345,-0.0345,-0.0345,-0.0345,0.0602,0.0669,0.0774,0.0904,0.1021,0.1161,0.1265,0.1379,0.1511,0.1612,0.1563,0.1509,0.1126,0.0518,0.011,-0.0296,-0.0285,-0.0423,-0.042,-0.0417,-0.039,-0.0366,-0.0449,-0.0449,-0.045,-0.045,-0.045,0,0.0668,0.074,0.086,0.1018,0.1146,0.1205,0.1385,0.1485,0.1647,0.172,0.1749,0.1406,0.1016,0.0588,-0.002,-0.0394,-0.0416,-0.0496,-0.0443,-0.0439,-0.0436,-0.0409,-0.0473,-0.0475,-0.0476,-0.0477,0,0,0.0707,0.0821,0.0878,0.1095,0.1207,0.1393,0.1501,0.1653,0.1752,0.1802,0.1781,0.1675,0.1167,0.0724,0.0214,-0.0129,-0.0194,-0.019,-0.013,-0.0002,0.0005,-0.035,-0.0298,0,0,0,0,0]}],[{"header":{"parameterUnit":"m.s-1","parameterCategory":2,"la1":30.2991,"la2":30.254,"lo1":-89.0895,"lo2":-89.0444,"dy":0.0017,"dx":0.0017,"nx":28,"ny":28,"refTime":"2024-06-03T21:00:00:Z","depth":"4","parameterNumber":2,"parameterNumberName":"U-component_of_CURRENTS"},"data":[0,0,0,0,0,0,0,0,0,0,0,0,0,0,0,0,0,0,0,0,0,0,0,0,0,0,0,0,0,0,0,0,0,0,0,0,0,0,0,0,0,0,0,0,0,0,0,0,0,0,0,0,0,0,0,0,0,0,0.1766,0.1767,0,0.1822,0.1823,0.1823,0.1885,0.1886,0.1887,0.1889,0.1911,0.1911,0.191,0,0,0,0,0,0,0,0,0,0,0,0,0,0.173,0.173,0.1766,0.1767,0.1768,0.1822,0.1823,0.1823,0.1885,0.1886,0.1888,0.1889,0.1911,0.1911,0.191,0,0,0,0,0,0,0,0,0,0,0,0,0,0.1759,0.173,0.1766,0.1808,0.1812,0.1822,0.1823,0.1823,0.1885,0.1886,0.1888,0.189,0.1912,0.1911,0.191,0.187,0,0,0.1908,0.1908,0,0,0,0,0,0,0,0,0.1757,0.1759,0.1801,0.1805,0.181,0.1851,0.1818,0.1838,0.1884,0.1854,0.1889,0.1891,0.1889,0.189,0.1893,0.1871,0.1872,0.1908,0.1907,0.1907,0.1907,0,0,0,0,0,0,0,0.1755,0.1758,0.1785,0.1802,0.1807,0.183,0.1835,0.1822,0.1858,0.1857,0.1862,0.1873,0.1891,0.1893,0.1894,0.1872,0.1908,0.1907,0.1907,0.1906,0.1932,0.1933,0,0,0,0,0,0,0.1751,0.1755,0.1784,0.1787,0.1791,0.1829,0.1835,0.1834,0.1859,0.1865,0.1871,0.1875,0.1894,0.1894,0.1895,0.1976,0.1907,0.1906,0.1906,0.193,0.1932,0.1933,0,0,0,0,0,0,0.175,0.1752,0.1781,0.1776,0.1782,0.1828,0.1826,0.1834,0.1872,0.1871,0.1876,0.1906,0.1895,0.1896,0.1918,0.1972,0.1906,0.1905,0.1929,0.1931,0.1932,0.2055,0,0,0,0,0,0,0.1748,0.1751,0.1767,0.1775,0.1782,0.1799,0.1825,0.1834,0.1875,0.1882,0.1901,0.1903,0.1897,0.192,0.1918,0.197,0.1905,0.1928,0.193,0.1932,0.205,0.2061,0.2071,0,0,0,0,0,0.1746,0.1746,0.1767,0.1772,0.1796,0.1799,0.1804,0.1842,0.1876,0.1885,0.1913,0.1905,0.1932,0.1919,0.1917,0.1971,0.1927,0.1929,0.1932,0.2045,0.2059,0.207,0,0,0,0,0,0,0.1744,0.1752,0.1776,0.1782,0.1801,0.1811,0.183,0.1857,0.1886,0.1907,0.1911,0.1914,0.1935,0.1934,0.192,0.1981,0.193,0.1932,0.2017,0.203,0.204,0.2059,0.1904,0,0,0,0,0,0.1749,0.1749,0.1767,0.1776,0.1787,0.1817,0.1834,0.1857,0.1877,0.1895,0.1915,0.1935,0.1935,0.1971,0.1945,0.1996,0.2002,0.2028,0.2039,0.2048,0.206,0.2114,0.2132,0.1941,0.1941,0.1941,0,0,0.1757,0.1758,0.1765,0.1776,0.1796,0.1798,0.1831,0.1856,0.1883,0.1888,0.194,0.1943,0.1941,0.1981,0.1997,0.2005,0.2107,0.2051,0.206,0.2067,0.2119,0.2138,0.2154,0.1943,0.1943,0.1942,0,0,0.175,0.1768,0.1767,0.1782,0.1811,0.1809,0.1823,0.1856,0.1903,0.1935,0.1951,0.2018,0.2005,0.2064,0.2076,0.2133,0.2121,0.2113,0.2236,0.2289,0.2306,0.2321,0.2368,0.2386,0.2169,0.2169,0.2169,0,0.1768,0.1761,0.1771,0.1777,0.1801,0.1813,0.1832,0.1856,0.1902,0.1968,0.1957,0.2031,0.2052,0.2147,0.2186,0.2165,0.2173,0.2196,0.2306,0.2321,0.2334,0.2378,0.2397,0.2175,0.2174,0.2174,0.2173,0,0.1751,0.1769,0.1768,0.1771,0.1794,0.1804,0.1841,0.1888,0.1934,0.1984,0.2081,0.2121,0.2198,0.2215,0.2225,0.2349,0.2315,0.2277,0.2284,0.2362,0.2402,0.2419,0.2184,0.2182,0.218,0.2178,0,0,0.1732,0.1754,0.176,0.1789,0.1803,0.1819,0.187,0.194,0.2013,0.2074,0.2192,0.2261,0.2332,0.2353,0.2398,0.2481,0.2613,0.2446,0.2446,0.2509,0.2723,0.2552,0.2554,0.2587,0.259,0.2593,0.272,0,0.1724,0.1732,0.1754,0.1785,0.1796,0.1856,0.1904,0.1986,0.2051,0.2156,0.227,0.2353,0.2367,0.2442,0.2529,0.2572,0.2659,0.2581,0.2623,0.2625,0.2477,0.2568,0.2603,0.2733,0.2737,0.2739,0.2741,0,0.1699,0.1709,0.174,0.1822,0.1842,0.1875,0.1993,0.2047,0.219,0.2263,0.2395,0.2447,0.2628,0.2588,0.2755,0.2698,0.2733,0.2752,0.2756,0.2564,0.2485,0.2632,0.2772,0.2769,0.2767,0.2765,0.2763,0,0.1654,0.1711,0.1738,0.176,0.1833,0.1919,0.198,0.2108,0.2198,0.2357,0.2438,0.2592,0.271,0.2767,0.2854,0.2814,0.2977,0.2924,0.2799,0.2788,0.285,0.2833,0.3017,0.3017,0.3017,0.3016,0.3016,0,0.1604,0.1636,0.1739,0.1749,0.1835,0.1928,0.2042,0.2132,0.229,0.239,0.2518,0.2611,0.2757,0.2863,0.2892,0.2911,0.3025,0.2835,0.2815,0.2898,0.2884,0.2864,0.2844,0.3021,0.302,0.3019,0.3018,0,0.1527,0.1576,0.1631,0.1755,0.1806,0.1885,0.2065,0.2144,0.2304,0.2439,0.2506,0.2693,0.2818,0.2921,0.3037,0.2967,0.2988,0.2957,0.3068,0.3048,0.2754,0.2739,0.2832,0.2828,0.2823,0.282,0.2817,0,0.1478,0.149,0.1626,0.167,0.1735,0.1864,0.1941,0.2125,0.2205,0.2455,0.2506,0.271,0.2803,0.2845,0.2947,0.2989,0.2948,0.2938,0.2821,0.2767,0.2739,0.2731,0.2722,0.2811,0.281,0.2808,0.2807,0,0.1395,0.1459,0.1502,0.1586,0.1682,0.1769,0.1907,0.196,0.2164,0.2339,0.2453,0.2535,0.2671,0.2748,0.281,0.2823,0.2928,0.2894,0.2901,0.2791,0.2742,0.2716,0.2712,0.2793,0.2795,0.2797,0.2797,0,0.1351,0.1363,0.1428,0.1498,0.1594,0.1645,0.1735,0.1845,0.1957,0.2232,0.2265,0.2467,0.2646,0.2665,0.2715,0.2726,0.2677,0.2572,0.2595,0.2612,0.2477,0.2377,0.232,0,0,0,0,0,0.1298,0.1285,0.1335,0.1387,0.1475,0.154,0.1688,0.1783,0.1986,0.2014,0.214,0.2247,0.2352,0.2454,0.2422,0.2609,0.2676,0.2558,0.2563,0.2714,0.2731,0.259,0,0,0,0,0,0,0.1244,0.1278,0.1288,0.1282,0.1305,0.1388,0.1483,0.1625,0.1647,0.1866,0.1936,0.2107,0.2238,0.2352,0.2379,0.241,0.2366,0.2689,0.2683,0.2705,0.272,0.2733,0.2594,0,0,0,0,0]},{"header":{"parameterUnit":"m.s-1","parameterCategory":2,"la1":30.2991,"la2":30.254,"lo1":-89.0895,"lo2":-89.0444,"dy":0.0017,"dx":0.0017,"nx":28,"ny":28,"refTime":"2024-06-03T21:00:00:Z","depth":"4","parameterNumber":3,"parameterNumberName":"V-component_of_CURRENTS"},"data":[0,0,0,0,0,0,0,0,0,0,0,0,0,0,0,0,0,0,0,0,0,0,0,0,0,0,0,0,0,0,0,0,0,0,0,0,0,0,0,0,0,0,0,0,0,0,0,0,0,0,0,0,0,0,0,0,0,0,0.0015,0.0015,0,-0.0015,-0.0015,-0.0016,-0.0055,-0.0055,-0.0056,-0.0056,-0.0109,-0.0109,-0.011,0,0,0,0,0,0,0,0,0,0,0,0,0,0.0015,0.0015,0.0015,0.0015,0.0014,-0.0015,-0.0015,-0.0016,-0.0055,-0.0055,-0.0056,-0.0057,-0.0108,-0.0109,-0.011,0,0,0,0,0,0,0,0,0,0,0,0,0,0.0002,0.0015,0.0015,-0.0008,-0.001,-0.0015,-0.0015,-0.0016,-0.0055,-0.0055,-0.0056,-0.0057,-0.0108,-0.0109,-0.0111,-0.0102,0,0,-0.0115,-0.0115,0,0,0,0,0,0,0,0,0.0003,0.0002,-0.0004,-0.0006,-0.0009,-0.0031,-0.0035,-0.0046,-0.0054,-0.0039,-0.0056,-0.0057,-0.0084,-0.0087,-0.0092,-0.0105,-0.0107,-0.0115,-0.0115,-0.0116,-0.0116,0,0,0,0,0,0,0,0.0004,0.0003,0.0002,-0.0004,-0.0007,-0.0025,-0.0027,-0.0037,-0.0057,-0.004,-0.0043,-0.0044,-0.0085,-0.009,-0.0093,-0.0108,-0.0115,-0.0116,-0.0117,-0.0117,-0.0107,-0.0106,0,0,0,0,0,0,0.0012,0.0004,0.0003,0.0001,-0.0004,-0.0024,-0.0027,-0.0024,-0.0057,-0.0062,-0.0044,-0.0046,-0.0088,-0.0092,-0.0095,-0.008,-0.0116,-0.0117,-0.0118,-0.0108,-0.0107,-0.0105,0,0,0,0,0,0,0.0012,0.0012,0.0004,0.0002,0.0,-0.0023,-0.0019,-0.0024,-0.0032,-0.0059,-0.0065,-0.0047,-0.0089,-0.0093,-0.01,-0.0083,-0.0118,-0.0119,-0.0109,-0.0107,-0.0106,-0.0054,0,0,0,0,0,0,0.0012,0.0012,0.0017,0.0003,0.0001,0.001,-0.0019,-0.0024,-0.0031,-0.0034,-0.0063,-0.0069,-0.009,-0.0098,-0.0101,-0.0085,-0.012,-0.011,-0.0108,-0.0107,-0.0057,-0.0051,-0.0045,0,0,0,0,0,0.0012,0.0027,0.0018,0.0018,0.0008,0.0011,0.0008,-0.0012,-0.003,-0.0024,-0.0046,-0.0068,-0.0087,-0.0098,-0.0102,-0.0086,-0.0111,-0.0109,-0.0107,-0.006,-0.0052,-0.0046,0,0,0,0,0,0,0.0028,0.0024,0.0014,0.0025,0.0021,0.0005,0.0008,-0.0008,-0.0021,-0.0026,-0.0058,-0.0064,-0.0056,-0.0079,-0.009,-0.0076,-0.0101,-0.01,-0.0064,-0.0057,-0.0051,-0.0041,-0.0121,0,0,0,0,0,0.0035,0.0044,0.0036,0.0045,0.0045,0.0026,0.0024,0.0012,-0.0001,-0.0008,-0.0027,-0.0045,-0.0048,-0.006,-0.0062,-0.0064,-0.0107,-0.0054,-0.0048,-0.0043,-0.0037,-0.0098,-0.0098,-0.0098,-0.0098,-0.0098,0,0,0.0042,0.0042,0.0046,0.0049,0.0042,0.0061,0.0023,0.0027,0.0042,-0.0011,0.0002,-0.0018,-0.0039,-0.0032,-0.0032,-0.0054,-0.0065,-0.004,-0.0036,-0.0032,-0.0096,-0.0097,-0.0097,-0.0096,-0.0096,-0.0097,0,0,0.0071,0.0063,0.0085,0.0088,0.0088,0.0083,0.0087,0.0077,0.0071,0.0082,0.0051,0.0035,0.0031,0.0011,0.0002,0.0037,-0.0022,0.0039,0.0062,0.0002,0.0001,-0.0001,-0.0056,-0.0063,0.0028,0.0029,0.0029,0,0.0078,0.0107,0.0091,0.0115,0.0125,0.0099,0.0128,0.0127,0.0116,0.0111,0.0098,0.0078,0.0055,0.0049,0.006,0.005,0.0003,0.0035,0.0007,0.0005,0.0002,-0.0055,-0.0063,0.0031,0.0031,0.0031,0.003,0,0.0126,0.0149,0.0164,0.0189,0.0197,0.0218,0.0215,0.0222,0.0212,0.0199,0.0196,0.0159,0.0139,0.0131,0.0106,0.0082,0.0052,0.003,-0.0015,0.0005,-0.0056,-0.0065,0.0035,0.0034,0.0034,0.0033,0,0,0.0146,0.019,0.0196,0.0222,0.0238,0.0252,0.0281,0.0293,0.0304,0.0286,0.0286,0.0267,0.0225,0.0212,0.0168,0.011,0.0049,0.0061,0.0056,-0.0001,-0.0089,-0.0084,-0.0095,0.0011,0.0009,0.0008,-0.0125,0,0.019,0.0256,0.0263,0.0324,0.0358,0.0348,0.0379,0.038,0.0371,0.0365,0.0313,0.0305,0.0263,0.0245,0.0183,0.0089,0.0026,0.0087,-0.0093,-0.0098,-0.0102,-0.0105,0.0004,-0.0133,-0.0135,-0.0137,-0.0138,0,0.0236,0.0278,0.0348,0.0398,0.041,0.0441,0.0469,0.0492,0.0472,0.046,0.0424,0.0377,0.0309,0.0266,0.0106,0.0143,0.0037,-0.0046,-0.0053,-0.0072,-0.0111,-0.0156,-0.0157,-0.0155,-0.0154,-0.0153,-0.0151,0,0.0265,0.0334,0.0395,0.0413,0.0467,0.0491,0.0516,0.0517,0.0541,0.0511,0.051,0.042,0.0379,0.0238,0.008,0.0082,-0.011,-0.0131,-0.0226,-0.0228,-0.0218,-0.0215,-0.025,-0.025,-0.025,-0.025,-0.0249,0,0.0308,0.0355,0.0417,0.0451,0.0521,0.0535,0.0592,0.0599,0.0609,0.0633,0.0558,0.0544,0.0367,0.0241,0.0087,-0.0095,-0.0109,-0.0221,-0.0262,-0.0191,-0.0184,-0.0225,-0.0221,-0.0255,-0.0254,-0.0253,-0.0252,0,0.0327,0.0368,0.0443,0.0514,0.0539,0.0587,0.0656,0.0692,0.0695,0.072,0.0715,0.0624,0.0464,0.0276,0.004,-0.0074,-0.0258,-0.0323,-0.023,-0.0264,-0.034,-0.033,-0.044,-0.0441,-0.0441,-0.0442,-0.0443,0,0.0344,0.0388,0.0486,0.0533,0.0569,0.0643,0.0695,0.0733,0.077,0.0769,0.0779,0.0651,0.0563,0.0249,0.004,-0.0255,-0.0293,-0.039,-0.0363,-0.033,-0.0359,-0.0349,-0.0339,-0.0444,-0.0444,-0.0444,-0.0445,0,0.0375,0.041,0.047,0.0569,0.0638,0.0722,0.0795,0.083,0.087,0.0872,0.0836,0.0686,0.0506,0.0263,0.0034,-0.0177,-0.0326,-0.0399,-0.0398,-0.0374,-0.0337,-0.0362,-0.0352,-0.0447,-0.0447,-0.0447,-0.0446,0,0.0394,0.0434,0.0513,0.0599,0.0691,0.0777,0.0815,0.0862,0.0904,0.0904,0.0885,0.0704,0.06,0.0301,0.0087,-0.0116,-0.0166,-0.0227,-0.0237,-0.0236,-0.0134,-0.0054,-0.0114,0,0,0,0,0,0.041,0.0454,0.0533,0.0632,0.0725,0.0785,0.0873,0.0903,0.0938,0.0927,0.0915,0.0753,0.0463,0.0335,0.0133,0.0048,-0.0222,-0.0197,-0.0302,-0.0462,-0.0459,-0.0373,0,0,0,0,0,0,0.0418,0.0488,0.0531,0.065,0.072,0.0828,0.0891,0.0915,0.091,0.0913,0.0763,0.0704,0.0415,0.058,0.0131,0.0068,-0.0025,-0.0331,-0.0335,-0.0464,-0.0461,-0.0459,-0.0369,0,0,0,0,0]}]]